• In Uzbekistan
  • List of Countries
  • For 7 days
  • Water Temperature
  • Satellite Maps
  • Weather Map
  • Weather Widgets
  • user-avatar
    Login

    Hourly Weather Badhan

    Today, 25 April, Wednesday

    Time Temperature Precipitation Wind Pressure Humidity
    00:00 +26°C° 0 mm 5 mps 656 mmHg 55%
    01:00 +25°C° 0 mm 4 mps 656 mmHg 60%
    02:00 +24°C° 0 mm 3 mps 655 mmHg 66%
    03:00 +24°C° 0 mm 3 mps 655 mmHg 71%
    04:00 +23°C° 0 mm 2 mps 655 mmHg 73%
    05:00 +23°C° 0 mm 2 mps 655 mmHg 75%
    06:00 +23°C° 0 mm 2 mps 655 mmHg 77%
    07:00 +24°C° 0 mm 2 mps 656 mmHg 71%
    08:00 +25°C° 0 mm 2 mps 656 mmHg 66%
    09:00 +26°C° 0 mm 2 mps 657 mmHg 60%
    10:00 +27°C° 0 mm 2 mps 656 mmHg 54%
    11:00 +28°C° 0 mm 2 mps 656 mmHg 48%
    12:00 +29°C° 0 mm 2 mps 656 mmHg 43%
    13:00 +30°C° 0.1 mm 2 mps 656 mmHg 40%
    14:00 +30°C° 0.1 mm 2 mps 656 mmHg 38%
    15:00 +31°C° 0.1 mm 2 mps 655 mmHg 35%
    16:00 +31°C° 0.2 mm 3 mps 655 mmHg 35%
    17:00 +30°C° 0.2 mm 3 mps 655 mmHg 35%
    18:00 +30°C° 0.2 mm 3 mps 655 mmHg 35%
    19:00 +30°C° 0 mm 3 mps 655 mmHg 36%
    20:00 +29°C° 0 mm 3 mps 655 mmHg 37%
    21:00 +29°C° 0 mm 3 mps 656 mmHg 37%
    22:00 +28°C° 0 mm 4 mps 655 mmHg 44%
    23:00 +27°C° 0 mm 4 mps 655 mmHg 50%

    Tomorrow, 26 April, Thursday

    Time Temperature Precipitation Wind Pressure Humidity
    00:00 +26°C° 0 mm 4 mps 655 mmHg 57%
    01:00 +25°C° 0.1 mm 4 mps 655 mmHg 62%
    02:00 +25°C° 0.1 mm 3 mps 654 mmHg 68%
    03:00 +24°C° 0.1 mm 3 mps 654 mmHg 73%
    04:00 +24°C° 0.1 mm 3 mps 654 mmHg 75%
    05:00 +23°C° 0.1 mm 2 mps 655 mmHg 77%
    06:00 +23°C° 0.1 mm 2 mps 655 mmHg 79%
    07:00 +24°C° 0 mm 2 mps 655 mmHg 74%
    08:00 +25°C° 0 mm 2 mps 656 mmHg 68%
    09:00 +26°C° 0 mm 3 mps 656 mmHg 63%
    10:00 +27°C° 0 mm 3 mps 656 mmHg 58%
    11:00 +28°C° 0 mm 3 mps 656 mmHg 53%
    12:00 +29°C° 0 mm 3 mps 656 mmHg 48%
    13:00 +29°C° 0.6 mm 2 mps 655 mmHg 47%
    14:00 +29°C° 0.6 mm 2 mps 655 mmHg 47%
    15:00 +30°C° 0.6 mm 2 mps 654 mmHg 46%
    16:00 +29°C° 0.8 mm 2 mps 654 mmHg 48%
    17:00 +29°C° 0.8 mm 3 mps 654 mmHg 50%
    18:00 +28°C° 0.8 mm 3 mps 654 mmHg 52%
    19:00 +28°C° 1 mm 2 mps 654 mmHg 53%
    20:00 +27°C° 1 mm 2 mps 655 mmHg 54%
    21:00 +27°C° 1 mm 2 mps 655 mmHg 56%
    22:00 +27°C° 0.3 mm 2 mps 655 mmHg 57%
    23:00 +26°C° 0.3 mm 2 mps 655 mmHg 58%

    Day after tomorrow, 27 April, Friday

    Time Temperature Precipitation Wind Pressure Humidity
    00:00 +26°C° 0.3 mm 2 mps 655 mmHg 58%
    01:00 +26°C° 0.4 mm 2 mps 654 mmHg 62%
    02:00 +25°C° 0.4 mm 3 mps 654 mmHg 65%
    03:00 +23°C° 0.4 mm 4 mps 654 mmHg 69%
    04:00 +24°C° 0.1 mm 3 mps 654 mmHg 71%
    05:00 +24°C° 0.1 mm 3 mps 654 mmHg 73%
    06:00 +24°C° 0.1 mm 3 mps 654 mmHg 74%
    07:00 +24°C° 0.1 mm 3 mps 655 mmHg 71%
    08:00 +25°C° 0.1 mm 3 mps 656 mmHg 67%
    09:00 +26°C° 0.1 mm 3 mps 656 mmHg 63%
    10:00 +27°C° 0.1 mm 4 mps 656 mmHg 60%
    11:00 +28°C° 0.1 mm 4 mps 656 mmHg 56%
    12:00 +29°C° 0.1 mm 4 mps 656 mmHg 52%
    13:00 +29°C° 0.2 mm 4 mps 656 mmHg 51%
    14:00 +29°C° 0.2 mm 4 mps 655 mmHg 50%
    15:00 +29°C° 0.2 mm 3 mps 655 mmHg 49%
    16:00 +29°C° 0.3 mm 3 mps 655 mmHg 51%
    17:00 +28°C° 0.3 mm 3 mps 655 mmHg 52%
    18:00 +28°C° 0.3 mm 3 mps 655 mmHg 54%
    19:00 +27°C° 0.2 mm 3 mps 655 mmHg 56%
    20:00 +27°C° 0.2 mm 3 mps 655 mmHg 58%
    21:00 +27°C° 0.2 mm 3 mps 655 mmHg 60%
    22:00 +26°C° 0 mm 3 mps 655 mmHg 62%
    23:00 +26°C° 0 mm 3 mps 655 mmHg 64%

    28 April, Saturday

    Time Temperature Precipitation Wind Pressure Humidity
    00:00 +25°C° 0 mm 3 mps 655 mmHg 66%
    01:00 +25°C° 0.1 mm 3 mps 654 mmHg 67%
    02:00 +25°C° 0.1 mm 3 mps 654 mmHg 69%
    03:00 +24°C° 0.1 mm 3 mps 654 mmHg 70%
    04:00 +24°C° 0 mm 3 mps 654 mmHg 72%
    05:00 +23°C° 0 mm 4 mps 654 mmHg 74%
    06:00 +22°C° 0 mm 4 mps 655 mmHg 77%
    07:00 +23°C° 0 mm 4 mps 655 mmHg 71%
    08:00 +25°C° 0 mm 4 mps 656 mmHg 66%
    09:00 +26°C° 0 mm 5 mps 657 mmHg 61%
    10:00 +27°C° 0.1 mm 5 mps 657 mmHg 57%
    11:00 +28°C° 0.1 mm 4 mps 656 mmHg 54%
    12:00 +28°C° 0.1 mm 4 mps 656 mmHg 51%
    13:00 +29°C° 0.3 mm 4 mps 656 mmHg 50%
    14:00 +29°C° 0.3 mm 3 mps 655 mmHg 49%
    15:00 +29°C° 0.3 mm 3 mps 655 mmHg 49%
    16:00 +29°C° 0.3 mm 3 mps 655 mmHg 50%
    17:00 +28°C° 0.3 mm 3 mps 655 mmHg 51%
    18:00 +28°C° 0.3 mm 3 mps 655 mmHg 53%
    19:00 +28°C° 0.2 mm 3 mps 655 mmHg 54%
    20:00 +27°C° 0.2 mm 2 mps 656 mmHg 56%
    21:00 +27°C° 0.2 mm 2 mps 656 mmHg 57%
    22:00 +27°C° 0.1 mm 2 mps 656 mmHg 59%
    23:00 +26°C° 0.1 mm 2 mps 656 mmHg 61%

    29 April, Sunday

    Time Temperature Precipitation Wind Pressure Humidity
    00:00 +26°C° 0.1 mm 2 mps 655 mmHg 62%
    01:00 +25°C° 0.1 mm 2 mps 655 mmHg 64%
    02:00 +25°C° 0.1 mm 2 mps 655 mmHg 66%
    03:00 +25°C° 0.1 mm 2 mps 654 mmHg 67%
    04:00 +24°C° 0.2 mm 2 mps 655 mmHg 69%
    05:00 +24°C° 0.2 mm 2 mps 655 mmHg 71%
    06:00 +24°C° 0.2 mm 2 mps 655 mmHg 73%
    07:00 +25°C° 0.1 mm 3 mps 656 mmHg 68%
    08:00 +26°C° 0.1 mm 3 mps 656 mmHg 64%
    09:00 +26°C° 0.1 mm 4 mps 657 mmHg 59%
    10:00 +27°C° 0.3 mm 4 mps 657 mmHg 57%
    11:00 +28°C° 0.3 mm 4 mps 656 mmHg 54%
    12:00 +28°C° 0.3 mm 4 mps 656 mmHg 51%
    13:00 +28°C° 0.8 mm 4 mps 655 mmHg 52%
    14:00 +28°C° 0.8 mm 3 mps 655 mmHg 52%
    15:00 +28°C° 0.8 mm 3 mps 654 mmHg 53%
    16:00 +28°C° 0.6 mm 3 mps 654 mmHg 54%
    17:00 +27°C° 0.6 mm 3 mps 654 mmHg 56%
    18:00 +27°C° 0.6 mm 3 mps 654 mmHg 58%
    19:00 +26°C° 0.1 mm 3 mps 655 mmHg 60%
    20:00 +26°C° 0.1 mm 3 mps 655 mmHg 62%
    21:00 +26°C° 0.1 mm 3 mps 655 mmHg 63%
    22:00 +25°C° 0 mm 3 mps 655 mmHg 65%
    23:00 +25°C° 0 mm 3 mps 655 mmHg 66%

    30 April, Monday

    Time Temperature Precipitation Wind Pressure Humidity
    00:00 +25°C° 0 mm 2 mps 654 mmHg 68%
    01:00 +24°C° 0.1 mm 2 mps 654 mmHg 69%
    02:00 +24°C° 0.1 mm 2 mps 654 mmHg 71%
    03:00 +24°C° 0.1 mm 2 mps 653 mmHg 72%
    04:00 +24°C° 0.1 mm 3 mps 654 mmHg 72%
    05:00 +24°C° 0.1 mm 3 mps 654 mmHg 72%
    06:00 +24°C° 0.1 mm 3 mps 655 mmHg 73%
    07:00 +25°C° 0 mm 3 mps 655 mmHg 68%
    08:00 +25°C° 0 mm 4 mps 656 mmHg 62%
    09:00 +26°C° 0 mm 4 mps 656 mmHg 57%
    10:00 +27°C° 0.1 mm 4 mps 656 mmHg 54%
    11:00 +28°C° 0.1 mm 4 mps 655 mmHg 52%
    12:00 +29°C° 0.1 mm 4 mps 655 mmHg 49%
    13:00 +29°C° 0.3 mm 4 mps 655 mmHg 49%
    14:00 +29°C° 0.3 mm 4 mps 654 mmHg 50%
    15:00 +29°C° 0.3 mm 4 mps 653 mmHg 50%
    16:00 +28°C° 0.9 mm 3 mps 654 mmHg 53%
    17:00 +27°C° 0.9 mm 3 mps 654 mmHg 55%
    18:00 +27°C° 0.9 mm 3 mps 654 mmHg 57%
    19:00 +26°C° 0.5 mm 4 mps 654 mmHg 59%
    20:00 +26°C° 0.5 mm 4 mps 654 mmHg 62%
    21:00 +25°C° 0.5 mm 4 mps 655 mmHg 64%
    22:00 +25°C° 0.4 mm 4 mps 654 mmHg 66%
    23:00 +25°C° 0.4 mm 4 mps 654 mmHg 69%
    Show more